Simultaneous Nadir Overpasses (SNOs) Predictions

Prediction of SNOs between GOES-16 and NPP Satellite Orbit:

Table of predicted SNOs for the next 14.0 days since TLE Epoch: 6/1/2024
Index Date Time (GOES-16) GOES-16 Lat,Lon NPP Lat,Lon Distance(km) Time Diff (sec)
1 06/02/2024 06:38:47 0.00, -75.21 0.61, -78.02 320.26 80
2 06/03/2024 06:17:21 -0.00, -75.21 -0.40, -73.48 197.30 80
3 06/04/2024 18:41:54 0.00, -75.22 -0.81, -78.77 405.17 80
4 06/05/2024 18:20:28 0.01, -75.23 0.20, -74.23 112.67 80
5 06/07/2024 06:44:53 -0.00, -75.24 0.97, -79.49 485.09 80
6 06/08/2024 06:23:27 -0.01, -75.25 -0.09, -74.97 33.07 80
7 06/10/2024 18:29:14 0.01, -75.28 -0.08, -75.72 49.73 80
8 06/11/2024 18:07:48 0.01, -75.30 0.93, -71.18 469.29 80
9 06/13/2024 06:32:13 -0.01, -75.33 0.24, -76.45 126.46 80
10 06/14/2024 06:10:47 -0.01, -75.36 -0.78, -71.91 393.01 80
